GW6068 Weather Reports


time (UTC)temp
F
wind
direction
speed
knots
gust
knots
rain 1hr
in
rain 24hr
in
rain mn
in
humidity
%
barometer
mb
20260504035306 50 330 13.0 25.2 0.00 0.00 0.00 67 1055.7
20260504034803 50 325 7.8 25.2 0.00 0.00 0.00 66 1055.9
20260504034300 51 311 13.9 22.6 0.00 0.00 0.00 65 1055.6
20260504033757 51 316 14.8 22.6 0.00 0.00 0.00 62 1055.4
20260504033255 52 340 9.6 19.1 0.00 0.00 0.00 60 1055.6
20260504032751 52 345 5.2 22.6 0.00 0.00 0.00 58 1055.5
20260504032249 52 346 20.9 21.7 0.00 0.00 0.00 57 1055.1
20260504031745 52 352 8.7 25.2 0.00 0.00 0.00 57 1055.3
20260504031243 52 3 7.8 23.5 0.00 0.00 0.00 57 1055.2
20260504030738 52 351 6.1 23.5 0.00 0.00 0.00 58 1055.2
20260504030236 52 349 9.6 25.2 0.00 0.00 0.00 58 1055.0
20260504025732 52 355 9.6 27.8 0.00 0.00 0.00 58 1055.0
20260504025229 52 356 13.0 24.3 0.00 0.00 0.00 58 1055.1
20260504024726 52 358 15.6 29.5 0.00 0.00 0.00 58 1055.4
20260504024223 52 344 12.2 26.1 0.00 0.00 0.00 59 1055.3
20260504023720 53 356 6.1 20.0 0.00 0.00 0.00 60 1054.9
20260504023216 53 0 8.7 23.5 0.00 0.00 0.00 61 1054.7
20260504022712 53 0 17.4 25.2 0.00 0.00 0.00 60 1054.8
20260504022208 54 333 11.3 26.1 0.00 0.00 0.00 59 1054.4
20260504021706 55 355 13.0 22.6 0.00 0.00 0.00 57 1054.2
20260504021202 56 352 6.1 19.1 0.00 0.00 0.00 55 1053.6
20260504020659 57 347 19.1 27.8 0.00 0.00 0.00 53 1054.4
20260504020155 60 10 10.4 34.8 0.00 0.00 0.00 46 1053.3
20260504015652 65 330 15.6 18.2 0.00 0.00 0.00 38 1052.5
20260504015148 64 325 6.1 8.7 0.00 0.00 0.00 39 1052.1
20260504014644 64 313 3.5 4.3 0.00 0.00 0.00 39 1051.8
20260504014142 64 288 2.6 2.6 0.00 0.00 0.00 38 1051.9
20260504013639 65 292 3.5 7.0 0.00 0.00 0.00 37 1051.8
20260504013136 65 319 5.2 8.7 0.00 0.00 0.00 37 1052.2
20260504012633 66 278 1.7 5.2 0.00 0.00 0.00 37 1052.1
20260504012131 66 279 4.3 4.3 0.00 0.00 0.00 36 1052.2
20260504011628 66 298 4.3 5.2 0.00 0.00 0.00 36 1052.1
20260504011124 66 286 2.6 5.2 0.00 0.00 0.00 36 1052.3
20260504010620 66 292 2.6 8.7 0.00 0.00 0.00 36 1052.2
20260504010116 66 293 4.3 8.7 0.00 0.00 0.00 36 1052.5
20260504005613 66 288 2.6 5.2 0.00 0.00 0.00 37 1052.6
20260504005110 67 302 3.5 9.6 0.00 0.00 0.00 36 1052.5
20260504004608 67 312 7.0 12.2 0.00 0.00 0.00 35 1052.3
20260504004105 67 305 5.2 7.8 0.00 0.00 0.00 36 1052.3
20260504003601 68 310 7.0 10.4 0.00 0.00 0.00 35 1052.6
20260504003058 68 312 11.3 15.6 0.00 0.00 0.00 34 1052.6
20260504002555 68 329 7.0 7.8 0.00 0.00 0.00 35 1052.7
20260504002052 68 308 4.3 7.8 0.00 0.00 0.00 34 1052.7
20260504001550 68 333 4.3 10.4 0.00 0.00 0.00 34 1052.3
20260504001045 68 332 5.2 12.2 0.00 0.00 0.00 33 1052.7
20260504000543 68 357 3.5 9.6 0.00 0.00 0.00 33 1052.9
20260504000040 68 326 7.0 7.0 0.00 0.00 0.00 33 1052.9
20260503235538 69 325 10.4 11.3 0.00 0.00 0.00 32 1052.9
20260503235035 69 324 6.1 11.3 0.00 0.00 0.00 32 1052.9
20260503234532 69 326 6.1 13.0 0.00 0.00 0.00 31 1053.2
20260503234031 71 306 11.3 14.8 0.00 0.00 0.00 29 1053.3
20260503233527 72 286 7.8 16.5 0.00 0.00 0.00 25 1053.1
20260503233023 73 273 11.3 15.6 0.00 0.00 0.00 24 1053.0
20260503232520 73 266 12.2 18.2 0.00 0.00 0.00 23 1053.2
20260503232018 73 271 15.6 20.0 0.00 0.00 0.00 23 1053.4
20260503231515 73 273 15.6 18.2 0.00 0.00 0.00 23 1053.6
20260503231012 73 274 13.0 17.4 0.00 0.00 0.00 23 1053.4
20260503230508 73 272 16.5 20.0 0.00 0.00 0.00 22 1053.6
20260503230006 74 275 13.0 21.7 0.00 0.00 0.00 22 1053.7
20260503225503 74 280 17.4 21.7 0.00 0.00 0.00 22 1053.9
20260503224958 74 271 14.8 16.5 0.00 0.00 0.00 22 1054.0
20260503224455 75 309 13.0 20.0 0.00 0.00 0.00 22 1054.1
20260503223953 74 278 13.0 15.6 0.00 0.00 0.00 22 1054.3
20260503223451 74 273 15.6 18.2 0.00 0.00 0.00 22 1054.3
20260503222946 75 290 10.4 18.2 0.00 0.00 0.00 22 1054.5
20260503222445 74 269 14.8 19.1 0.00 0.00 0.00 22 1054.7
20260503221943 74 272 14.8 20.9 0.00 0.00 0.00 22 1054.7
20260503221440 74 275 20.0 26.9 0.00 0.00 0.00 22 1054.8
20260503220937 75 269 14.8 23.5 0.00 0.00 0.00 21 1055.0
20260503220433 75 268 19.1 21.7 0.00 0.00 0.00 21 1055.0
20260503215931 75 275 17.4 22.6 0.00 0.00 0.00 21 1055.2
20260503215427 75 277 13.0 22.6 0.00 0.00 0.00 21 1055.3
20260503214925 76 274 14.8 18.2 0.00 0.00 0.00 22 1055.2
20260503214423 75 264 17.4 20.9 0.00 0.00 0.00 22 1055.4
20260503213920 75 267 15.6 23.5 0.00 0.00 0.00 21 1055.4
20260503213418 75 267 15.6 19.1 0.00 0.00 0.00 22 1055.7
20260503212914 74 280 20.9 26.9 0.00 0.00 0.00 22 1055.8
20260503212412 74 273 16.5 27.8 0.00 0.00 0.00 23 1055.9
20260503211909 76 268 16.5 25.2 0.00 0.00 0.00 21 1056.0
20260503211406 75 264 15.6 20.0 0.00 0.00 0.00 21 1056.2
20260503210901 75 257 16.5 21.7 0.00 0.00 0.00 21 1056.3
20260503210358 75 275 22.6 23.5 0.00 0.00 0.00 21 1056.4
20260503205852 75 273 13.9 22.6 0.00 0.00 0.00 21 1056.5
20260503205350 75 263 16.5 20.0 0.00 0.00 0.00 21 1056.8
20260503204846 74 260 13.9 21.7 0.00 0.00 0.00 21 1057.0
20260503204344 73 266 13.0 19.1 0.00 0.00 0.00 22 1057.1
20260503203841 74 265 13.0 20.9 0.00 0.00 0.00 22 1057.1
20260503203338 75 256 19.1 24.3 0.00 0.00 0.00 21 1057.4
20260503202835 75 262 11.3 24.3 0.00 0.00 0.00 21 1057.6
20260503202333 75 255 13.9 25.2 0.00 0.00 0.00 21 1057.6
20260503201832 75 259 19.1 26.9 0.00 0.00 0.00 21 1057.7
20260503201328 74 266 16.5 20.9 0.00 0.00 0.00 21 1057.8
20260503200826 74 256 15.6 24.3 0.00 0.00 0.00 21 1057.8
20260503200321 73 273 14.8 21.7 0.00 0.00 0.00 21 1057.9
20260503195819 74 277 15.6 20.9 0.00 0.00 0.00 20 1058.1
20260503195315 74 269 15.6 21.7 0.00 0.00 0.00 19 1058.1
20260503194813 73 285 13.9 19.1 0.00 0.00 0.00 22 1058.2
20260503194308 74 275 16.5 20.9 0.00 0.00 0.00 21 1058.6
20260503193804 73 266 12.2 15.6 0.00 0.00 0.00 22 1058.3
20260503193300 73 279 16.5 20.0 0.00 0.00 0.00 21 1058.7
20260503192756 72 272 18.2 22.6 0.00 0.00 0.00 21 1058.9
20260503192252 72 274 15.6 22.6 0.00 0.00 0.00 22 1058.9
20260503191749 72 276 13.0 16.5 0.00 0.00 0.00 22 1058.9
20260503191246 71 284 15.6 20.9 0.00 0.00 0.00 22 1059.1
20260503190743 72 279 8.7 18.2 0.00 0.00 0.00 22 1059.4
20260503190239 72 283 16.5 25.2 0.00 0.00 0.00 22 1059.3
20260503185737 72 264 21.7 23.5 0.00 0.00 0.00 20 1059.7
20260503185232 73 276 18.2 18.2 0.00 0.00 0.00 21 1059.8
20260503184727 73 301 14.8 20.9 0.00 0.00 0.00 22 1059.9
20260503184224 73 279 13.9 20.9 0.00 0.00 0.00 21 1060.0
20260503183720 74 280 17.4 21.7 0.00 0.00 0.00 19 1060.3
20260503183217 71 306 10.4 22.6 0.00 0.00 0.00 22 1060.2
20260503182716 70 273 17.4 22.6 0.00 0.00 0.00 22 1060.3
20260503182214 72 273 14.8 20.9 0.00 0.00 0.00 23 1060.5
20260503181709 71 291 14.8 20.9 0.00 0.00 0.00 23 1060.5
20260503181207 72 273 18.2 23.5 0.00 0.00 0.00 23 1060.7
20260503180703 72 280 13.9 22.6 0.00 0.00 0.00 23 1060.8
20260503180202 72 263 15.6 19.1 0.00 0.00 0.00 23 1061.0
20260503175658 71 264 16.5 24.3 0.00 0.00 0.00 23 1061.1
20260503175156 71 269 13.0 20.9 0.00 0.00 0.00 23 1061.3
20260503174652 71 263 18.2 25.2 0.00 0.00 0.00 23 1061.2
20260503174150 71 275 15.6 17.4 0.00 0.00 0.00 24 1061.4
20260503173644 71 272 12.2 18.2 0.00 0.00 0.00 24 1061.7
20260503173141 71 287 11.3 19.1 0.00 0.00 0.00 24 1062.0
20260503172638 71 272 21.7 24.3 0.00 0.00 0.00 24 1061.9
20260503172135 70 265 14.8 21.7 0.00 0.00 0.00 25 1062.2
20260503171631 70 272 20.0 25.2 0.00 0.00 0.00 24 1062.3
20260503171129 70 261 13.9 15.6 0.00 0.00 0.00 24 1062.1
20260503170626 69 269 13.0 20.9 0.00 0.00 0.00 24 1062.6
20260503170123 69 267 18.2 25.2 0.00 0.00 0.00 25 1062.6
20260503150514 57 220 8.7 9.6 0.00 0.00 0.00 38 1065.6
20260503131407 48 265 4.3 5.2 0.00 0.00 0.00 53 1067.3
20260503130904 47 261 3.5 3.5 0.00 0.00 0.00 53 1067.4
20260503130402 47 301 1.7 2.6 0.00 0.00 0.00 56 1067.5
20260503110806 37 12 0.9 3.5 0.00 0.00 0.00 68 1068.4
20260503110303 36 332 1.7 2.6 0.00 0.00 0.00 69 1068.5
20260503100229 38 320 1.7 3.5 0.00 0.00 0.00 64 1068.8
20260503090153 32 326 4.3 4.3 0.00 0.00 0.00 74 1068.5
20260503081624 40 304 2.6 3.5 0.00 0.00 0.00 58 1068.5
20260503081121 41 318 2.6 6.1 0.00 0.00 0.00 58 1068.4
20260503080616 41 309 3.5 3.5 0.00 0.00 0.00 59 1068.7
20260503080113 41 335 1.7 2.6 0.00 0.00 0.00 59 1068.5
20260503072550 39 317 2.6 2.6 0.00 0.00 0.00 59 1068.8
20260503072048 40 283 2.6 3.5 0.00 0.00 0.00 58 1068.8
20260503071544 40 317 3.5 4.3 0.00 0.00 0.00 59 1068.9
20260503071041 39 297 1.7 3.5 0.00 0.00 0.00 60 1068.7
20260503070537 40 282 1.7 4.3 0.00 0.00 0.00 58 1068.9
20260503054957 47 31 0.9 2.6 0.00 0.00 0.00 47 1068.8
20260503054453 48 309 1.7 2.6 0.00 0.00 0.00 46 1069.2
20260503053951 49 339 2.6 3.5 0.00 0.00 0.00 45 1068.9
20260503053448 49 344 3.5 5.2 0.00 0.00 0.00 45 1068.8
20260503052945 49 354 2.6 3.5 0.00 0.00 0.00 45 1069.0
20260503052443 50 332 1.7 4.3 0.00 0.00 0.00 44 1069.0
20260503051938 50 25 1.7 4.3 0.00 0.00 0.00 43 1068.8
20260503051434 51 316 3.5 7.0 0.00 0.00 0.00 43 1069.0
20260503050932 51 357 6.1 7.0 0.00 0.00 0.00 43 1069.1
20260503050427 51 19 4.3 5.2 0.00 0.00 0.00 42 1069.0
20260503045926 51 0 7.0 8.7 0.00 0.00 0.00 41 1069.1
20260503045423 52 355 1.7 7.8 0.00 0.00 0.00 41 1069.2
20260503044919 52 355 6.1 10.4 0.00 0.00 0.00 41 1069.1
20260503044416 52 354 7.8 10.4 0.00 0.00 0.00 41 1069.0
20260503043914 52 338 2.6 9.6 0.00 0.00 0.00 40 1069.2
20260503043410 53 350 5.2 11.3 0.00 0.00 0.00 40 1069.1
20260503042907 53 353 6.1 13.0 0.00 0.00 0.00 39 1069.1
20260503042403 53 349 7.0 10.4 0.00 0.00 0.00 39 1069.2
20260503041859 53 4 10.4 13.0 0.00 0.00 0.00 38 1069.3
20260503041357 53 14 10.4 16.5 0.00 0.00 0.00 38 1069.2
20260503040854 53 2 5.2 12.2 0.00 0.00 0.00 39 1069.2
20260503040352 53 2 9.6 12.2 0.00 0.00 0.00 39 1069.2
20260503035848 53 351 2.6 13.9 0.00 0.00 0.00 39 1069.2